< < Back
Terminal Aerodrome Forecast


Current Version              Previous Versions:   1  2  3  4  5  6  7  8  9  

Terminal Aerodrome Forecast

037
FTUS42 KTAE 301120
TAFABY
TAF
KABY 301120Z 3012/3112 22003KT P6SM SKC
     FM301400 27006KT P6SM SCT050
     FM301800 22008KT P6SM VCTS SCT050CB
     FM310000 22006KT P6SM FEW050 BKN250=



Latest METAR

812
SAUS70 KWBC 301800 RRH
MTRABY
METAR KABY 301753Z COR 23005KT 10SM BKNO7O 34/20 A3004 RMK AO2 SLP169
T03440200 10344 20250 58016


USA.gov is the U.S. government's official web portal to all federal, state and local government web resources and services.